Location: *
(48.0667°S, 178.8500°E)
Time: 03:46:57
(UTC+00:00)

Daily predictions for brighter satellites

Satellite Brightness Start Highest point End
(mag) Time Altitude Azimuth Time Altitude Azimuth Time Altitude Azimuth
Cosmos 1538 Rocket 4.1 04:48:55 10° N 04:54:05 64° ENE 04:59:17 10° SSE
ADEOS 4.1 04:49:12 10° S 04:54:28 66° WSW 04:59:41 10° NNW
COSMOS 2428 3.6 04:49:51 10° NNE 04:54:50 31° ENE 04:59:52 10° SE
USA 234 3.4 04:48:17 10° SE 04:54:57 80° NE 05:01:34 10° NW
STARLINK-1336 3.8 04:52:00 10° WSW 04:54:59 35° S 04:57:59 10° ESE
STARLINK-1350 4.0 04:51:41 10° WSW 04:55:10 38° S 04:58:39 10° ESE
STARLINK-1331 3.8 04:52:23 10° WSW 04:55:22 35° S 04:58:22 10° ESE
STARLINK-1344 3.8 04:52:44 10° WSW 04:55:44 35° S 04:58:43 10° ESE
STARLINK-1343 3.8 04:53:00 10° WSW 04:56:00 35° S 04:59:00 10° ESE
STARLINK-1346 3.8 04:53:26 10° WSW 04:56:24 34° S 04:59:20 10° ESE
STARLINK-1328 3.8 04:53:42 10° WSW 04:56:41 35° S 04:59:41 10° ESE
STARLINK-1354 3.8 04:54:01 10° WSW 04:57:01 35° S 05:00:01 10° ESE
STARLINK-1347 3.8 04:54:23 10° WSW 04:57:23 35° S 05:00:23 10° ESE
STARLINK-1357 3.8 04:54:43 10° WSW 04:57:43 35° S 05:00:42 10° ESE
STARLINK-1352 4.0 04:54:25 10° WSW 04:57:54 39° S 05:01:24 10° ESE
STARLINK-1335 3.8 04:55:07 10° WSW 04:58:07 35° S 05:01:06 10° ESE
STARLINK-1327 3.8 04:55:22 10° WSW 04:58:23 35° S 05:01:23 10° ESE
STARLINK-1340 3.8 04:55:43 10° WSW 04:58:44 35° S 05:01:43 10° ESE
ADEOS Rocket 3.6 04:51:15 10° NNE 04:58:52 76° ESE 05:06:45 10° SSW
STARLINK-1356 3.8 04:56:04 10° WSW 04:59:04 35° S 05:02:04 10° ESE
STARLINK-1345 3.7 04:56:24 10° WSW 04:59:24 35° S 05:02:25 10° ESE
Cosmos 1515 Rocket 3.8 04:54:57 10° S 04:59:27 83° W 05:03:57 10° N
STARLINK-1355 3.7 04:56:44 10° WSW 04:59:45 35° S 05:02:45 10° ESE
STARLINK-1321 3.7 04:57:06 10° WSW 05:00:06 35° S 05:03:06 10° ESE
ATLAS 5 CENTAUR R/B 4.3 04:56:36 10° NE 05:00:23 15° ENE 05:04:04 10° ESE
STARLINK-1358 3.7 04:57:25 10° WSW 05:00:25 35° S 05:03:25 10° ESE
STARLINK-1368 4.0 04:57:10 10° WSW 05:00:41 39° S 05:04:10 10° ESE
STARLINK-1283 3.5 04:56:55 10° WNW 05:00:46 78° SSW 05:04:40 10° ESE
STARLINK-1332 3.7 04:57:49 10° WSW 05:00:50 35° S 05:03:49 10° ESE
STARLINK-1348 3.7 04:58:07 10° WSW 05:01:07 36° S 05:04:07 10° ESE
STARLINK-1330 3.7 04:58:25 10° WSW 05:01:26 36° S 05:04:26 10° ESE
STARLINK-60 3.1 04:58:17 10° WSW 05:01:36 79° NNW 05:04:51 10° ENE
STARLINK-1363 3.7 04:58:50 10° WSW 05:01:51 36° S 05:04:51 10° E
Meteor 1-31 Rocket 2.9 04:57:54 10° SSE 05:01:58 90° W 05:05:56 10° NNW
STARLINK-1311 2.9 04:59:00 10° WNW 05:02:03 74° SSW 05:05:06 10° ESE
STARLINK-1337 3.7 04:59:07 10° WSW 05:02:07 36° S 05:05:08 10° E
STARLINK-1342 3.7 04:59:27 10° WSW 05:02:28 36° S 05:05:28 10° E
STARLINK-1364 3.7 04:59:46 10° WSW 05:02:47 36° S 05:05:47 10° E
STARLINK-1376 3.7 05:00:09 10° WSW 05:03:09 36° S 05:06:10 10° E
STARLINK-1369 4.0 04:59:57 10° WSW 05:03:28 39° S 05:06:57 10° E
STARLINK-1360 3.7 05:00:28 10° WSW 05:03:28 36° S 05:06:29 10° E
STARLINK-1361 3.7 05:00:47 10° WSW 05:03:48 36° S 05:06:48 10° E
STARLINK-1367 3.7 05:01:10 10° WSW 05:04:10 36° S 05:07:07 10° E
STARLINK-1366 3.7 05:01:32 10° WSW 05:04:33 36° S 05:07:34 10° E
STARLINK-1372 3.9 05:02:44 10° WSW 05:06:15 40° S 05:09:46 10° E
COSMO-SKYMED 1 2.6 05:02:00 10° NNE 05:06:22 75° ESE 05:10:49 10° S
Cosmos 1821 Rocket 4.0 05:00:20 10° N 05:06:29 87° E 05:12:46 10° S
CZ-4B R/B 4.4 05:02:22 10° SE 05:06:38 22° E 05:10:53 10° NE
Cosmos 2237 Rocket 3.8 05:04:14 10° NE 05:07:32 16° E 05:10:51 10° ESE
STARLINK-42 3.3 05:04:52 10° WNW 05:08:06 59° SSW 05:11:15 11° ESE
STARLINK-1316 3.0 05:04:58 10° WNW 05:08:09 74° SSW 05:11:15 11° ESE
Iridium 96 4.0 05:07:06 10° SSE 05:08:35 22° E 05:10:04 10° NE
STARLINK-1257 3.0 05:05:54 10° WNW 05:09:06 73° SSW 05:12:08 11° ESE
STARLINK-1378 3.9 05:05:47 10° WSW 05:09:20 41° S 05:12:53 10° E
SL-16 R/B 3.4 05:04:20 10° WNW 05:09:40 39° SW 05:15:02 10° SSE
STARLINK-1256 3.0 05:06:48 10° WNW 05:09:59 72° SSW 05:13:00 11° ESE
STARLINK-1304 4.3 05:06:02 10° NNW 05:10:01 43° NE 05:13:54 11° ESE
Cosmos 1633 2.5 05:07:05 10° N 05:10:42 68° E 05:14:22 10° SSE
STARLINK-1213 3.0 05:07:42 10° WNW 05:10:53 71° SSW 05:13:52 12° ESE
STARLINK-1329 3.9 05:08:04 10° WSW 05:11:38 41° S 05:15:02 11° E
STARLINK-1263 3.0 05:08:36 10° WNW 05:11:47 70° SSW 05:14:44 12° ESE
STARLINK-1379 3.9 05:08:20 10° WSW 05:11:53 41° S 05:15:16 11° E
STARLINK-1286 4.2 05:08:14 10° NW 05:12:17 46° NE 05:16:08 11° ESE
STARLINK-1259 3.0 05:09:30 10° WNW 05:12:41 70° SSW 05:15:35 12° ESE
STARLINK-1265 3.0 05:10:02 10° WNW 05:13:12 69° SSW 05:16:03 12° ESE
Cosmos 2228 Rocket 3.1 05:08:34 10° S 05:13:13 79° E 05:17:43 10° NNE
STARLINK-1285 3.1 05:10:24 10° WNW 05:13:35 69° SSW 05:16:27 12° ESE
STARLINK-1268 3.0 05:11:02 10° WNW 05:14:12 68° SSW 05:17:02 13° ESE
STARLINK-1362 3.9 05:11:15 10° WSW 05:14:51 42° S 05:18:11 12° E
STARLINK-1365 3.9 05:11:28 10° WSW 05:15:05 43° SSE 05:18:25 12° E
STARLINK-1296 3.1 05:12:14 10° WNW 05:15:25 67° SSW 05:18:13 13° ESE
ATLAS CENTAUR R/B 3.8 05:14:32 10° S 05:16:15 12° SSE 05:18:01 10° SE
STARLINK-1260 3.1 05:13:09 10° WNW 05:16:19 66° SSW 05:19:04 13° ESE
STARLINK-1318 3.1 05:14:03 10° WNW 05:17:14 65° SSW 05:19:57 13° ESE
USA 32 4.4 05:12:11 10° NNW 05:17:28 72° W 05:22:49 10° S
STARLINK-1373 3.9 05:14:03 10° WSW 05:17:39 43° S 05:20:51 12° E
STARLINK-1275 3.1 05:14:55 10° WNW 05:18:05 65° SSW 05:20:46 14° ESE
STARLINK-1309 3.1 05:15:48 10° WNW 05:18:59 64° SSW 05:21:39 14° ESE
USA 116 4.5 05:14:52 10° NNE 05:19:38 55° ESE 05:24:51 10° S
STARLINK-1282 3.1 05:16:44 10° WNW 05:19:55 63° SSW 05:22:32 14° ESE
STARLINK-1390 3.8 05:16:45 10° WSW 05:20:19 43° SSE 05:23:22 13° E
STARLINK-1313 3.2 05:17:49 10° WNW 05:20:58 58° SSW 05:23:32 15° ESE
Cosmos 1934 Rocket 4.1 05:14:47 10° N 05:21:06 72° E 05:27:34 10° SSE
STARLINK-62 3.0 05:18:04 10° WNW 05:21:19 78° SSW 05:23:57 15° ESE
STARLINK-1279 3.3 05:18:47 10° W 05:21:57 57° SSW 05:24:28 15° ESE
STARLINK-1298 3.2 05:19:26 10° WNW 05:22:37 61° SSW 05:25:07 15° ESE
STARLINK-1029 2.9 05:19:31 10° WNW 05:22:43 87° NNE 05:25:14 16° ESE
STARLINK-34 3.0 05:20:00 10° WNW 05:23:16 76° SSW 05:25:50 15° ESE
Meteor 2-3 Rocket 4.3 05:17:38 10° NNW 05:23:23 65° WSW 05:29:17 10° S
STARLINK-1293 3.2 05:20:23 10° WNW 05:23:33 60° SSW 05:26:02 15° ESE
STARLINK-1301 3.5 05:21:03 10° WNW 05:24:34 61° SSW 05:27:22 15° ESE
STARLINK-55 3.6 05:21:54 10° W 05:25:04 45° SSW 05:27:31 16° SE
STARLINK-1255 3.2 05:22:11 10° WNW 05:25:21 59° SSW 05:27:44 16° ESE
STARLINK-1299 3.9 05:21:52 10° NW 05:26:08 64° NNE 05:29:38 15° ESE
Cosmos 405 3.2 05:22:55 10° S 05:26:27 49° ESE 05:29:53 10° NNE
STARLINK-1306 3.9 05:22:27 10° NW 05:26:38 59° NE 05:30:00 15° ESE
Cosmos 1743 Rocket 3.8 05:22:38 10° NNW 05:27:02 74° W 05:31:34 10° S
Cosmos 2333 Rocket 2.3 05:21:32 10° NNW 05:27:14 63° ENE 05:32:58 10° SSE
STARLINK-1307 3.4 05:24:24 10° WNW 05:27:57 62° SSW 05:30:38 16° ESE
Okean O Rocket 2.5 05:24:26 10° SE 05:28:20 28° E 05:32:12 10° NNE
H-2A R/B 3.8 05:25:26 10° SE 05:28:46 26° E 05:32:06 10° NNE
Meteor 1-10 Rocket 4.2 05:23:33 10° S 05:29:14 67° ESE 05:34:55 10° NNE
Cosmos 2278 Rocket 2.4 05:24:10 10° SSW 05:29:42 48° SE 05:35:11 10° NE
FENGYUN 3A 3.9 05:24:20 10° SSE 05:29:51 78° WSW 05:35:16 10° NNW
STARLINK-1281 3.9 05:25:45 10° NW 05:29:52 58° NE 05:33:02 17° ESE
STARLINK-29 3.0 05:27:06 10° WSW 05:30:27 87° NNW 05:33:45 10° ENE
STARLINK-1290 3.5 05:27:08 10° WNW 05:30:40 61° SSW 05:33:15 17° ESE
Cosmos 1844 Rocket 4.0 05:25:52 10° SW 05:31:16 45° WNW 05:36:38 10° N
Cosmos 1484 Rocket 3.8 05:28:10 10° S 05:31:57 47° WSW 05:35:37 10° NW
Cosmos 1605 Rocket 4.1 05:25:55 10° N 05:31:58 57° E 05:38:02 10° SSE
STARLINK-1297 3.5 05:29:48 10° W 05:33:20 59° SSW 05:35:48 18° SE
STARLINK-26 3.8 05:30:31 10° W 05:33:54 44° SSW 05:36:13 18° SE
Sich 1 3.4 05:30:00 10° NNE 05:34:12 45° E 05:38:30 10° SSE
METEOR-M 4.3 05:28:45 10° SSE 05:34:12 78° WSW 05:39:35 10° NNW
STARLINK-1310 3.8 05:30:41 10° NW 05:34:50 62° NNE 05:37:49 18° ESE
STARLINK-28 3.8 05:32:24 10° W 05:35:32 41° SSW 05:37:31 19° SE
SMAP 4.2 05:32:36 12° SE 05:35:57 24° E 05:39:43 10° NNE
STARLINK-41 3.6 05:34:29 10° W 05:37:36 44° SSW 05:39:29 20° SE
STARLINK-1319 3.8 05:35:38 10° NW 05:39:48 66° NNE 05:42:36 20° ESE
PSLV R/B 3.9 05:36:39 10° SSE 05:40:53 85° ENE 05:45:01 10° NNW
Cosmos 2322 3.9 05:35:26 10° NNW 05:41:09 77° WSW 05:46:53 10° SSE
STARLINK-48 3.5 05:37:19 10° WNW 05:41:17 78° SSW 05:43:52 21° ESE
Cosmos 1346 Rocket 2.8 05:37:33 10° N 05:41:32 88° W 05:45:36 10° S
SJ-12 4.4 05:38:35 10° S 05:42:45 64° WSW 05:46:50 10° NNW
Cosmos 2360 Rocket 3.2 05:38:49 10° NW 05:44:16 45° SW 05:49:46 10° SSE
STARLINK-1277 3.7 05:40:34 10° NW 05:44:45 71° NNE 05:47:22 22° ESE
Cosmos 2056 Rocket 3.6 05:40:37 10° SSW 05:45:56 53° ESE 05:51:06 10° NE
ATLAS 2AS CENTAUR R/B 3.5 05:41:58 10° SSW 05:47:33 30° SSE 05:51:07 19° ESE
STARLINK-1276 3.6 05:45:33 10° NW 05:49:44 76° NNE 05:52:09 25° ESE
CZ-4B R/B 4.3 05:45:55 10° S 05:50:02 42° WSW 05:54:15 10° NW
STARLINK-1291 3.7 05:46:57 10° W 05:50:15 47° SSW 05:51:51 26° SE
STARLINK-1317 3.8 05:47:54 10° W 05:51:25 48° SSW 05:53:10 25° SE
NOAA 6 4.0 05:46:32 10° SSE 05:51:43 63° ENE 05:56:49 10° N
STARLINK-1264 3.7 05:48:50 10° W 05:52:09 47° SSW 05:53:41 26° SE
SL-24 R/B 4.3 05:47:30 10° NNE 05:52:31 76° E 05:57:26 10° S
STARLINK-33 3.9 05:50:10 10° W 05:53:17 38° S 05:54:33 26° SE
MOS 1-B 4.3 05:47:40 10° SSE 05:53:36 80° ENE 05:59:27 10° NNW
SJ-7 4.3 05:50:02 10° SSE 05:54:05 64° ENE 05:58:05 10° N
STARLINK-1267 3.7 05:50:46 10° W 05:54:06 46° SSW 05:55:35 27° SE
CZ-2C R/B 3.7 05:53:39 22° ESE 05:54:38 23° ESE 05:58:46 10° S
STARLINK-1305 3.6 05:50:31 10° WNW 05:54:43 81° NNE 05:56:57 27° ESE
STARLINK-1272 3.7 05:52:40 10° W 05:56:00 45° SSW 05:57:24 28° SE
STARLINK-64 3.3 05:53:40 10° WNW 05:57:16 75° SSW 05:58:52 31° SE
STARLINK-1207 3.8 05:54:36 10° W 05:57:56 45° SSW 05:59:15 29° SE
Cosmos 1818 4.1 05:53:03 10° N 05:58:05 40° ENE 06:00:42 24° ESE
STARLINK-1278 3.7 05:54:10 10° WNW 05:58:30 87° SSW 06:00:43 28° ESE
Cosmos 1340 4.2 05:55:11 10° NW 05:58:44 36° WSW 06:02:19 10° S
STARLINK-1262 3.6 05:55:29 10° WNW 05:59:42 85° NNE 06:01:44 30° ESE
STARLINK-1266 3.8 05:56:36 10° W 05:59:55 44° SSW 06:01:09 30° SE
STARLINK-1280 3.7 05:56:00 10° WNW 06:00:20 86° SSW 06:02:29 29° ESE
Cosmos 1666 Rocket 3.6 05:56:21 10° N 06:00:40 58° E 06:04:57 10° SSE
Shenzhou-11 Module 3.4 05:58:38 10° NW 06:00:43 21° N 06:01:12 20° NNE
H-2A R/B 3.6 05:57:26 10° S 06:01:28 42° WSW 06:05:18 10° NW
STARLINK-1284 3.8 05:58:36 10° W 06:01:55 43° SSW 06:03:04 31° SE
STARLINK-66 4.0 05:58:56 10° WSW 06:02:01 36° S 06:02:55 30° SSE
YAOGAN 6 3.7 06:03:03 27° ENE 06:03:03 27° ENE 06:05:43 10° NNE
Cosmos 1633 Rocket 3.2 05:58:29 10° N 06:02:48 51° E 06:06:32 14° SSE
BREEZE-M DEB (TANK) 3.9 05:59:07 10° WSW 06:02:49 65° NNW 06:16:11 10° ENE
ALOS 3.8 05:58:34 10° S 06:02:55 36° WSW 06:07:14 10° NW
STARLINK-1258 3.8 06:00:32 10° W 06:03:51 43° SSW 06:04:55 32° SSE
Centaur D AC-29 4.4 05:59:09 10° NW 06:04:03 13° NNW 06:07:02 10° N
STARLINK-1300 3.6 06:00:26 10° WNW 06:04:39 90° E 06:06:29 33° ESE
STARLINK-1292 3.9 06:02:31 10° W 06:05:50 42° SSW 06:06:49 33° SSE
STARLINK-52 3.7 06:03:21 10° WSW 06:06:34 53° NW 06:08:29 21° NE
SeaSat 1 4.4 06:07:27 13° SSE 06:07:27 13° SSE 06:09:03 10° S
Cosmos 2219 Rocket 2.4 06:01:58 10° NW 06:07:41 73° WSW 06:13:01 12° SSE
STARLINK-1274 3.9 06:04:33 10° W 06:07:52 42° SSW 06:08:46 34° SSE
CZ-4B DEB 4.3 06:03:02 10° SSE 06:08:37 79° WSW 06:14:08 10° NNW
STARLINK-50 4.3 06:04:56 10° NNW 06:08:43 37° NE 06:09:41 32° ENE
Cosmos 2100 Rocket 4.2 06:02:55 10° NNE 06:08:46 45° E 06:14:38 10° SSE
STARLINK-1338 3.3 06:05:29 10° WSW 06:09:08 65° SSE 06:10:05 44° E
Cosmos 1680 Rocket 3.5 06:03:52 10° NNW 06:09:11 88° WSW 06:13:59 13° SSE
STARLINK-1295 3.6 06:05:27 10° WNW 06:09:40 86° SSW 06:11:18 37° ESE
STARLINK-1289 3.9 06:06:36 10° W 06:09:54 41° SSW 06:10:44 35° SSE
FALCON 9 DEB 3.3 06:07:54 10° WSW 06:11:27 71° NNW 06:12:54 32° NE
STARLINK-1303 3.9 06:08:35 10° W 06:11:54 41° SSW 06:12:38 35° SSE
Cosmos 923 Rocket 4.4 06:06:43 10° NNW 06:12:04 67° WSW 06:17:28 10° SSE
STARLINK-75 3.9 06:10:05 10° WSW 06:13:08 35° S 06:13:34 34° S
STARLINK-1312 3.9 06:10:37 10° W 06:13:54 40° SSW 06:14:34 36° SSE
STARLINK-1287 3.6 06:10:24 10° WNW 06:14:37 81° SSW 06:16:03 40° ESE
STARLINK-1371 3.2 06:10:57 10° WSW 06:14:37 69° SSE 06:15:21 51° E
Cosmos 1862 4.1 06:11:06 10° NNW 06:15:05 54° WSW 06:19:09 10° S
PAYLOAD B 4.3 06:10:17 10° SSE 06:15:54 81° WSW 06:21:26 10° NNW
Cosmos 1452 Rocket 4.0 06:11:19 10° S 06:16:17 38° ESE 06:17:28 33° E
STARLINK-1009 4.4 06:13:13 10° NNW 06:17:04 36° NE 06:17:39 34° ENE
STARLINK-1341 3.2 06:13:41 10° WSW 06:17:23 72° SSE 06:18:02 55° E
SL-4 R/B 4.2 06:15:53 10° W 06:18:50 22° NW 06:21:56 10° N
Cosmos 1153 Rocket 4.4 06:12:55 10° N 06:19:05 82° E 06:25:21 10° S
STARLINK-58 3.7 06:16:36 10° W 06:19:42 41° SSW 06:19:58 40° S
Cosmos 1420 Rocket 4.1 06:14:28 10° SSW 06:19:47 55° ESE 06:24:07 15° NE
STARLINK-1374 3.2 06:16:15 10° WSW 06:19:57 74° SSE 06:20:30 60° E
STARLINK-1015 4.3 06:18:07 10° NNW 06:22:01 39° NE 06:22:26 38° NE
CZ-4C R/B 4.1 06:17:10 10° SW 06:22:04 20° S 06:24:38 16° SSE
STARLINK-1339 3.2 06:18:59 10° WSW 06:22:42 76° SSE 06:23:10 64° E
Cosmos 1980 3.7 06:17:06 10° NNW 06:22:42 63° ENE 06:25:38 29° SE
STARLINK-22 4.0 06:19:39 10° WSW 06:22:44 36° S 06:22:50 36° S
STARLINK-1302 3.7 06:20:23 10° WNW 06:24:36 73° SSW 06:25:38 49° SE
STARLINK-1377 3.1 06:21:11 10° WSW 06:24:52 78° SSE 06:25:11 70° E
Envisat 3.0 06:21:19 17° SSE 06:25:17 62° E 06:30:21 10° N
Cosmos 2322 Rocket 4.5 06:21:40 10° WSW 06:25:26 18° SW 06:29:13 10° S
Cosmos 2061 Rocket 4.4 06:19:51 10° NNE 06:25:36 39° E 06:28:12 27° SE
Cosmos 1238 Rocket 2.7 06:21:19 10° N 06:25:47 79° E 06:27:18 36° SSE
STARLINK-1016 4.1 06:23:01 10° NNW 06:26:58 42° NE 06:27:13 41° NE
STARLINK-1320 2.9 06:24:08 10° WSW 06:27:09 77° WSW 06:27:09 77° WSW
STARLINK-1353 3.1 06:23:52 10° WSW 06:27:33 81° SSE 06:27:46 75° ESE
STARLINK-1322 2.9 06:24:28 10° WSW 06:27:28 77° WSW 06:27:28 77° WSW
STARLINK-1324 3.0 06:24:48 10° WSW 06:27:48 76° WSW 06:27:48 76° WSW
STARLINK-1294 3.0 06:25:10 10° WSW 06:28:05 72° WSW 06:28:05 72° WSW
STARLINK-1261 3.0 06:25:29 10° WSW 06:28:26 74° WSW 06:28:26 74° WSW
Cosmos 1812 4.0 06:24:57 10° SSW 06:28:42 42° W 06:32:23 10° NNW
STARLINK-1325 3.0 06:25:48 10° WSW 06:28:45 73° WSW 06:28:45 73° WSW
Feng Yun 1-1 Rocket 4.5 06:27:58 38° ESE 06:29:13 44° E 06:34:25 10° N
STARLINK-1333 3.0 06:26:11 10° WSW 06:29:07 72° WSW 06:29:07 72° WSW
MOS 1 Rocket 4.3 06:31:08 30° SSE 06:31:08 30° SSE 06:34:01 10° S
STARLINK-1273 3.7 06:25:24 10° WNW 06:29:35 70° SSW 06:30:25 53° SE
STARLINK-1334 3.1 06:26:30 10° WSW 06:29:26 72° WSW 06:29:26 72° WSW
Cosmos 2297 4.0 06:24:19 10° SSW 06:29:45 43° SE 06:30:33 41° ESE
STARLINK-1326 3.1 06:26:50 10° WSW 06:29:45 71° WSW 06:29:45 71° WSW
STARLINK-1323 3.1 06:27:09 10° WSW 06:30:04 70° WSW 06:30:04 70° WSW
Meteor 1-20 Rocket 4.5 06:24:57 10° NNE 06:30:25 46° E 06:32:29 33° SE
STARLINK-80 4.1 06:26:51 10° WSW 06:30:32 40° S 06:30:50 39° S
STARLINK-43 4.1 06:27:08 10° WSW 06:30:36 38° S 06:30:36 38° S
USA 40 PKM 4.2 06:26:17 10° NW 06:30:45 68° NE 06:31:05 62° ENE
STARLINK-1375 3.1 06:27:01 10° WSW 06:30:45 84° SSE 06:30:53 81° ESE
STARLINK-1349 3.1 06:27:32 10° WSW 06:30:25 69° WSW 06:30:25 69° WSW
STARLINK-1336 3.1 06:27:51 10° WSW 06:30:43 68° WSW 06:30:43 68° WSW
NOSS 0 Rocket 3.9 06:25:10 10° NNW 06:31:26 83° ENE 06:35:22 25° SSE
STARLINK-1331 3.1 06:28:13 10° WSW 06:31:05 68° WSW 06:31:05 68° WSW
STARLINK-1344 3.2 06:28:34 10° WSW 06:31:25 67° WSW 06:31:25 67° WSW
STARLINK-1008 4.1 06:27:56 10° NW 06:31:56 45° NE 06:32:01 45° NE
STARLINK-1343 3.2 06:28:51 10° WSW 06:31:41 66° WSW 06:31:41 66° WSW
STARLINK-1346 3.3 06:29:17 10° WSW 06:32:01 63° WSW 06:32:01 63° WSW
Helios 1A Rocket 3.3 06:33:10 46° NE 06:33:10 46° NE 06:36:26 10° N
STARLINK-1328 3.2 06:29:33 10° WSW 06:32:21 65° WSW 06:32:21 65° WSW
STARLINK-1350 3.1 06:29:17 10° WSW 06:32:59 86° SSE 06:32:59 86° SSE
STARLINK-1354 3.3 06:29:52 10° WSW 06:32:40 64° WSW 06:32:40 64° WSW
STARLINK-1347 3.3 06:30:14 10° WSW 06:33:01 63° WSW 06:33:01 63° WSW
Cosmos 1461 3.5 06:29:38 10° SW 06:33:32 51° WNW 06:36:32 15° NNE
STARLINK-81 3.8 06:29:52 10° NW 06:33:34 51° NNE 06:33:34 51° NNE
STARLINK-1357 3.3 06:30:33 10° WSW 06:33:20 62° WSW 06:33:20 62° WSW
STARLINK-1335 3.3 06:30:57 10° WSW 06:33:42 61° WSW 06:33:42 61° WSW
STARLINK-1327 3.3 06:31:13 10° WSW 06:33:58 61° WSW 06:33:58 61° WSW
STARLINK-1288 3.7 06:30:22 10° WNW 06:34:34 67° SSW 06:35:11 57° SSE
STARLINK-1340 3.4 06:31:34 10° WSW 06:34:17 60° WSW 06:34:17 60° WSW
STARLINK-1356 3.4 06:31:54 10° WSW 06:34:37 59° WSW 06:34:37 59° WSW
Meteor 1-27 Rocket 4.3 06:29:24 10° SSW 06:35:14 62° W 06:41:06 10° N
STARLINK-54 3.6 06:31:27 10° NW 06:35:11 57° NNE 06:35:11 57° NNE
STARLINK-1345 3.4 06:32:14 10° WSW 06:34:57 59° WSW 06:34:57 59° WSW
STARLINK-1352 3.2 06:32:01 10° WSW 06:35:37 85° SW 06:35:37 85° SW
STARLINK-1355 3.4 06:32:35 10° WSW 06:35:16 58° WSW 06:35:16 58° WSW
Cosmos 2016 Rocket 4.2 06:30:07 10° NNE 06:36:05 47° E 06:39:15 27° SSE
STARLINK-1321 3.5 06:32:57 10° WSW 06:35:37 58° WSW 06:35:37 58° WSW
STARLINK-1358 3.5 06:33:15 10° WSW 06:35:55 57° W 06:35:55 57° W
STARLINK-77 3.7 06:32:55 10° NW 06:36:31 53° NNE 06:36:31 53° NNE
STARLINK-1332 3.5 06:33:39 10° WSW 06:36:18 56° W 06:36:18 56° W
STARLINK-1014 4.0 06:32:51 10° NW 06:36:51 49° NNE 06:36:51 49° NNE
STARLINK-1348 3.5 06:33:57 10° WSW 06:36:36 56° W 06:36:36 56° W
STARLINK-1330 3.6 06:34:16 10° WSW 06:36:53 55° W 06:36:53 55° W
USA 234 3.8 06:34:22 28° SE 06:37:45 51° SSW 06:44:05 10° W
Cosmos 2173 Rocket 3.9 06:31:37 10° N 06:37:51 68° E 06:44:05 10° SSE
STARLINK-1363 3.6 06:34:40 10° WSW 06:37:17 54° W 06:37:17 54° W
STARLINK-1337 3.6 06:34:57 10° WSW 06:37:33 54° W 06:37:33 54° W
STARLINK-1368 3.3 06:34:47 10° WSW 06:38:17 79° WSW 06:38:17 79° WSW
STARLINK-1342 3.6 06:35:17 10° WSW 06:37:52 53° W 06:37:52 53° W
STARLINK-1364 3.6 06:35:36 10° WSW 06:38:11 53° W 06:38:11 53° W
COSMOS 2428 3.5 06:33:18 10° NW 06:38:53 50° SW 06:43:22 16° SSE
STARLINK-1376 3.7 06:35:59 10° WSW 06:38:32 52° W 06:38:32 52° W
STARLINK-1283 4.3 06:35:41 10° WSW 06:39:14 39° S 06:39:14 39° S
STARLINK-1360 3.7 06:36:19 10° WSW 06:38:50 51° W 06:38:50 51° W
STARLINK-1308 3.8 06:35:24 10° WNW 06:39:35 63° SSW 06:40:00 59° SSE
STARLINK-1361 3.7 06:36:37 10° WSW 06:39:09 51° W 06:39:09 51° W
STARLINK-1367 3.8 06:37:00 10° WSW 06:39:26 48° W 06:39:26 48° W
STARLINK-1010 3.9 06:36:17 10° NW 06:40:25 55° NNE 06:40:25 55° NNE
STARLINK-1366 3.8 06:37:22 10° WSW 06:39:52 49° W 06:39:52 49° W
STARLINK-1369 3.4 06:37:34 10° WSW 06:40:57 73° W 06:40:57 73° W
Lacrosse 5 rocket 2.9 06:37:50 10° N 06:40:18 25° NNE 06:40:18 25° NNE
STARLINK-79 3.8 06:37:47 10° NW 06:41:14 55° N 06:41:14 55° N
STARLINK-1025 4.0 06:37:48 10° NW 06:41:36 51° NNE 06:41:36 51° NNE
COSMOS 2455 4.3 06:38:03 10° SSW 06:42:03 22° SSE 06:42:03 22° SSE
DMSP B5D2-2 4.1 06:42:43 53° ESE 06:42:49 53° ESE 06:47:58 10° S
STARLINK-78 3.8 06:39:23 10° NW 06:42:46 55° N 06:42:46 55° N
Cosmos 2242 Rocket 4.4 06:39:06 10° S 06:42:02 37° SSE 06:42:02 37° SSE
STARLINK-1372 3.5 06:40:22 10° WSW 06:43:39 68° W 06:43:39 68° W
ATLAS 5 CENTAUR R/B 2.6 06:37:12 10° NNW 06:44:16 65° NE 06:46:25 44° ESE
STARLINK-57 3.8 06:41:07 10° NW 06:44:29 57° N 06:44:29 57° N
Cosmos 1459 Rocket 3.9 06:38:46 10° N 06:44:59 76° E 06:51:24 10° SSE
STARLINK-61 3.6 06:41:26 10° WNW 06:45:19 70° SW 06:45:19 70° SW
TIMED 4.4 06:41:14 10° NNW 06:45:31 74° NE 06:45:31 74° NE
STARLINK-49 3.9 06:42:40 10° NW 06:45:57 55° NNW 06:45:57 55° NNW
STARLINK-1017 4.0 06:42:41 10° NW 06:46:20 53° N 06:46:20 53° N
STARLINK-1378 3.7 06:43:30 10° WSW 06:46:44 64° W 06:46:44 64° W
CZ-4B R/B 3.6 06:42:09 10° S 06:47:34 61° WSW 06:53:01 10° NNW
Cosmos 371 Rocket 3.2 06:43:04 10° SSW 06:47:36 63° SE 06:47:36 63° SE
STARLINK-27 3.9 06:44:14 10° NW 06:47:26 54° NNW 06:47:26 54° NNW
SL-24 R/B - RUBIN 2 4.3 06:44:24 10° NNW 06:48:23 43° NNE 06:48:23 43° NNE
STARLINK-1329 3.8 06:45:45 10° WSW 06:48:51 58° W 06:48:51 58° W
STARLINK-1304 3.9 06:45:24 10° W 06:49:32 59° SSW 06:49:32 59° SSW
STARLINK-1379 3.8 06:45:59 10° WSW 06:49:04 58° W 06:49:04 58° W
STARLINK-74 4.0 06:45:52 10° NW 06:49:02 53° NNW 06:49:02 53° NNW
Cosmos 1470 Rocket 3.5 06:45:20 10° N 06:49:52 87° E 06:50:24 70° SSE
Cosmos 1943 Rocket 3.4 06:45:47 10° SSW 06:48:59 26° SSE 06:48:59 26° SSE
Cosmos 2237 Rocket 2.1 06:45:06 10° NNW 06:50:47 88° WSW 06:52:55 41° SSE
CORIOLIS 4.1 06:47:23 23° SSE 06:50:56 85° ENE 06:56:25 10° NNW
STARLINK-39 4.0 06:47:28 10° NW 06:50:34 52° NNW 06:50:34 52° NNW
STARLINK-1023 4.1 06:47:38 10° NW 06:51:07 52° N 06:51:07 52° N
STARLINK-1286 4.0 06:47:48 10° W 06:51:54 56° SSW 06:51:54 56° SSW
Cosmos 2369 Rocket 3.7 06:47:38 10° S 06:50:29 22° SSE 06:50:29 22° SSE
STARLINK-1362 3.9 06:49:04 10° WSW 06:52:10 55° W 06:52:10 55° W
STARLINK-31 4.1 06:49:06 10° NW 06:52:08 51° NNW 06:52:08 51° NNW
STARLINK-1365 4.0 06:49:17 10° WSW 06:52:21 55° W 06:52:21 55° W
STARLINK-69 4.1 06:50:53 10° NW 06:53:54 52° NW 06:53:54 52° NW
STARLINK-1373 4.1 06:51:49 10° WSW 06:54:45 50° W 06:54:45 50° W
NOAA 12 4.0 06:53:40 32° SSE 06:56:14 89° ENE 07:01:32 10° NNW
STARLINK-21 4.2 06:52:23 10° NW 06:55:18 48° NW 06:55:18 48° NW
ATLAS CENTAUR R/B 3.4 06:52:35 10° SSW 06:54:47 22° S 06:54:47 22° S
STARLINK-1007 4.2 06:52:36 10° NW 06:55:56 51° NNW 06:55:56 51° NNW
AQUARIUS 4.4 06:56:20 37° S 06:58:03 67° WSW 07:02:33 10° NNW
STARLINK-45 4.2 06:54:11 10° WNW 06:57:06 49° NW 06:57:06 49° NW
STARLINK-1390 4.3 06:54:28 10° WSW 06:57:14 46° W 06:57:14 46° W
STARLINK-70 4.3 06:55:47 10° WNW 06:58:37 47° NW 06:58:37 47° NW
Cosmos 1862 Rocket 4.4 06:55:39 10° SSW 07:00:06 51° W 07:04:29 10° N
STARLINK-76 4.4 06:57:18 10° WNW 07:00:02 44° NW 07:00:02 44° NW
STARLINK-1048 4.4 06:57:33 10° NW 07:00:43 48° NNW 07:00:43 48° NNW
STARLINK-71 4.3 06:58:03 10° WNW 07:01:11 52° NW 07:01:11 52° NW
Okean O Rocket 3.2 07:01:06 12° S 07:04:43 35° WSW 07:08:46 10° NW
SL-16 R/B 3.1 07:00:58 10° N 07:04:24 34° NNE 07:04:24 34° NNE
IRS-1C Rocket 4.0 07:09:07 84° SE 07:09:18 88° ENE 07:14:36 10° NNW
BREEZE M DEB (TANK) 4.1 06:45:14 10° WSW 07:11:13 86° NNW 07:13:12 54° ENE
Cosmos 1802 Rocket 4.0 07:05:13 10° N 07:11:43 86° W 07:18:15 10° S
Cosmos 2333 Rocket 3.9 07:06:59 10° WNW 07:11:57 28° SW 07:15:33 16° S
NOSS 3-4 (A) 3.6 07:05:41 10° SW 07:12:59 65° SE 07:13:17 65° ESE
NOSS 3-4 (C) 3.6 07:05:47 10° SW 07:13:04 65° SE 07:13:20 64° SE
SMAP 4.1 07:11:04 24° S 07:13:30 45° WSW 07:17:59 10° NW
Cosmos 2278 Rocket 3.9 07:08:35 10° SW 07:13:36 32° WNW 07:18:33 10° NNW
Cosmos 1725 Rocket 3.9 07:08:03 10° N 07:13:48 68° NE 07:13:48 68° NE
Cosmos 2346 Rocket 4.3 07:08:53 10° S 07:15:06 89° W 07:21:12 10° N
Cosmos 967 Rocket 4.3 07:09:44 10° NNW 07:15:39 71° NE 07:15:39 71° NE
NOSS 3-3 (A) 4.5 07:14:47 10° NW 07:23:05 83° SW 07:25:06 55° SSE
NOSS 3-3 (C) 4.4 07:14:53 10° NW 07:23:11 84° SW 07:25:09 55° SSE
SL-08 R/B 4.4 07:18:57 10° N 07:24:23 71° N 07:24:23 71° N
FengYun 1-2 T 4.4 07:25:50 69° NW 07:25:50 69° NW 07:30:43 10° NNW
Tsikada Rocket 4.0 07:27:22 10° S 07:33:31 80° SSW 07:33:31 80° SSW
CZ-2C R/B 3.1 07:35:11 59° WSW 07:35:11 59° WSW 07:39:55 10° SSW
ATLAS 2AS CENTAUR R/B 2.7 07:32:40 10° SW 07:38:34 73° SSW 07:38:34 73° SSW
Cosmos 2219 Rocket 4.4 07:48:50 10° W 07:52:42 18° SW 07:54:44 15° SSW
CZ-4C R/B 4.4 08:07:33 10° SW 08:09:48 18° SSW 08:09:48 18° SSW
USA 234 4.4 08:21:43 35° SSW 08:21:43 35° SSW 08:26:09 10° WSW
ATLAS 5 CENTAUR R/B 3.8 08:22:52 10° WNW 08:27:58 37° WSW 08:27:58 37° WSW
Cosmos 2237 Rocket 4.4 08:31:30 10° W 08:34:47 20° SW 08:34:47 20° SW
